UAL9 KPHX-KORD

Flight info

Callsign UAL9
Flight time 2h 50m
Altitude 35000
Route FORPE1 ABQ GCK J18 SLN J96 IRK BENKY6
Aircraft A321/M-SDE2E3FGHIRWXY/LB1

Departure

Time 2026-05-07 02:54
Airport Phoenix Sky Harbor International Airport (KPHX)

Arrival

Time 2026-05-07 05:45
Airport Chicago O'Hare International Airport (KORD)
Time Latitude Longitude Altitude Speed Heading
2026-05-07 02:35 33.43409 -111.99364 1131 ft 0 kts 286°
2026-05-07 02:44 33.43406 -111.99353 1131 ft 4 kts 280°
2026-05-07 02:44 33.43408 -111.99324 1132 ft 4 kts 236°
2026-05-07 02:44 33.43424 -111.99310 1136 ft 2 kts 181°
2026-05-07 02:44 33.43426 -111.99309 1136 ft 0 kts 180°
2026-05-07 02:48 33.43418 -111.99309 1135 ft 5 kts 180°
2026-05-07 02:49 33.43347 -111.99308 1133 ft 13 kts 179°
2026-05-07 02:49 33.43265 -111.99344 1135 ft 11 kts 219°
2026-05-07 02:49 33.43216 -111.99360 1133 ft 9 kts 169°
2026-05-07 02:49 33.43202 -111.99356 1136 ft 0 kts 164°
2026-05-07 02:51 33.43159 -111.99348 1136 ft 3 kts 176°
2026-05-07 02:52 33.43154 -111.99347 1137 ft 2 kts 177°
2026-05-07 02:52 33.43131 -111.99348 1138 ft 0 kts 186°
2026-05-07 02:52 33.43119 -111.99355 1139 ft 2 kts 205°
2026-05-07 02:52 33.43106 -111.99376 1137 ft 8 kts 250°
2026-05-07 02:53 33.43103 -111.99414 1135 ft 5 kts 270°
2026-05-07 02:53 33.43104 -111.99417 1135 ft 0 kts 271°
2026-05-07 02:53 33.43106 -111.99511 1135 ft 45 kts 271°
2026-05-07 02:54 33.43105 -112.00216 1135 ft 120 kts 270°
2026-05-07 02:54 33.43104 -112.01468 1143 ft 176 kts 270°
2026-05-07 02:54 33.43112 -112.03000 1723 ft 187 kts 270°
2026-05-07 02:54 33.43125 -112.04575 2336 ft 190 kts 271°
2026-05-07 02:55 33.43151 -112.06273 2391 ft 218 kts 273°
2026-05-07 02:55 33.43219 -112.08192 2503 ft 243 kts 273°
2026-05-07 02:55 33.43286 -112.10207 3214 ft 240 kts 272°
2026-05-07 02:55 33.43337 -112.12183 3884 ft 241 kts 272°
2026-05-07 02:56 33.43389 -112.14191 4550 ft 243 kts 273°
2026-05-07 02:56 33.43444 -112.16255 5180 ft 246 kts 274°
2026-05-07 02:56 33.43848 -112.18230 5731 ft 248 kts 305°
2026-05-07 02:56 33.45112 -112.19521 6323 ft 246 kts 340°
2026-05-07 02:57 33.46810 -112.19771 6972 ft 248 kts 359°
2026-05-07 02:57 33.48544 -112.19748 7618 ft 250 kts
2026-05-07 02:57 33.50288 -112.19700 8262 ft 251 kts
2026-05-07 02:57 33.52052 -112.19649 8915 ft 253 kts
2026-05-07 02:58 33.53809 -112.19392 9425 ft 261 kts 15°
2026-05-07 02:58 33.55601 -112.18865 9754 ft 274 kts 16°
2026-05-07 02:58 33.57466 -112.18308 10234 ft 283 kts 16°
2026-05-07 02:58 33.59453 -112.17712 10344 ft 304 kts 17°
2026-05-07 02:59 33.61465 -112.16736 10507 ft 321 kts 32°
2026-05-07 02:59 33.63231 -112.15003 10632 ft 338 kts 47°
2026-05-07 02:59 33.64873 -112.12904 10924 ft 349 kts 47°
2026-05-07 02:59 33.66551 -112.10754 11379 ft 356 kts 46°
2026-05-07 03:00 33.68256 -112.08579 11945 ft 359 kts 47°
2026-05-07 03:00 33.69977 -112.06386 12504 ft 362 kts 46°
2026-05-07 03:00 33.71704 -112.04167 13100 ft 365 kts 49°
2026-05-07 03:00 33.73151 -112.01653 13672 ft 369 kts 61°
2026-05-07 03:01 33.74090 -111.98819 14188 ft 372 kts 73°
2026-05-07 03:01 33.74493 -111.95717 14681 ft 377 kts 86°
2026-05-07 03:01 33.74344 -111.92550 15198 ft 381 kts 94°
2026-05-07 03:01 33.74073 -111.89369 15717 ft 383 kts 94°
2026-05-07 03:02 33.73802 -111.86179 16229 ft 385 kts 94°
2026-05-07 03:02 33.73532 -111.82971 16710 ft 387 kts 94°
2026-05-07 03:02 33.73265 -111.79777 17194 ft 389 kts 94°
2026-05-07 03:02 33.73000 -111.76552 17587 ft 394 kts 94°
2026-05-07 03:03 33.72724 -111.73232 18034 ft 397 kts 94°
2026-05-07 03:03 33.72450 -111.69934 18455 ft 400 kts 94°
2026-05-07 03:03 33.72173 -111.66583 18864 ft 402 kts 94°
2026-05-07 03:03 33.71893 -111.63237 19259 ft 404 kts 94°
2026-05-07 03:04 33.71604 -111.59873 19653 ft 406 kts 94°
2026-05-07 03:04 33.71312 -111.56490 20028 ft 408 kts 94°
2026-05-07 03:04 33.71017 -111.53090 20400 ft 410 kts 94°
2026-05-07 03:04 33.70721 -111.49676 20801 ft 412 kts 94°
2026-05-07 03:05 33.70424 -111.46244 21179 ft 414 kts 94°
2026-05-07 03:05 33.70124 -111.42796 21561 ft 416 kts 94°
2026-05-07 03:05 33.69822 -111.39330 21949 ft 419 kts 94°
2026-05-07 03:05 33.69516 -111.35840 22308 ft 421 kts 94°
2026-05-07 03:06 33.69211 -111.32341 22680 ft 423 kts 94°
2026-05-07 03:06 33.69143 -111.28809 23049 ft 424 kts 84°
2026-05-07 03:06 33.69573 -111.25311 23439 ft 424 kts 75°
2026-05-07 03:06 33.70487 -111.21945 23745 ft 425 kts 66°
2026-05-07 03:07 33.71652 -111.18721 24055 ft 427 kts 66°
2026-05-07 03:07 33.72829 -111.15441 24371 ft 428 kts 66°
2026-05-07 03:07 33.74003 -111.12148 24665 ft 430 kts 66°
2026-05-07 03:07 33.75182 -111.08829 24932 ft 433 kts 66°
2026-05-07 03:08 33.76366 -111.05496 25223 ft 435 kts 66°
2026-05-07 03:08 33.77557 -111.02137 25530 ft 436 kts 66°
2026-05-07 03:08 33.78746 -110.98780 25812 ft 438 kts 66°
2026-05-07 03:08 33.79944 -110.95403 26115 ft 439 kts 66°
2026-05-07 03:09 33.81143 -110.92027 26410 ft 440 kts 66°
2026-05-07 03:09 33.82345 -110.88639 26696 ft 441 kts 66°
2026-05-07 03:09 33.83549 -110.85243 26993 ft 443 kts 66°
2026-05-07 03:09 33.84757 -110.81831 27289 ft 444 kts 66°
2026-05-07 03:10 33.85966 -110.78408 27529 ft 446 kts 66°
2026-05-07 03:10 33.87185 -110.74954 27731 ft 449 kts 66°
2026-05-07 03:10 33.88410 -110.71483 27999 ft 450 kts 66°
2026-05-07 03:10 33.89629 -110.68021 28373 ft 449 kts 66°
2026-05-07 03:11 33.90844 -110.64559 28747 ft 448 kts 66°
2026-05-07 03:11 33.92053 -110.61117 29118 ft 446 kts 66°
2026-05-07 03:11 33.93259 -110.57682 29502 ft 444 kts 66°
2026-05-07 03:11 33.94444 -110.54300 29858 ft 443 kts 66°
2026-05-07 03:12 33.95640 -110.50885 30197 ft 441 kts 66°
2026-05-07 03:12 33.96831 -110.47485 30451 ft 442 kts 66°
2026-05-07 03:12 33.98031 -110.44063 30596 ft 445 kts 66°
2026-05-07 03:12 33.99238 -110.40610 30715 ft 449 kts 66°
2026-05-07 03:13 34.00450 -110.37129 30876 ft 451 kts 66°
2026-05-07 03:13 34.01667 -110.33630 31075 ft 453 kts 66°
2026-05-07 03:13 34.02883 -110.30126 31299 ft 454 kts 66°
2026-05-07 03:13 34.04093 -110.26625 31689 ft 449 kts 67°
2026-05-07 03:14 34.05287 -110.23170 32201 ft 444 kts 67°
2026-05-07 03:14 34.06474 -110.19738 32500 ft 444 kts 67°
2026-05-07 03:14 34.08863 -110.12849 32983 ft 446 kts 66°
2026-05-07 03:15 34.10051 -110.09431 33127 ft 449 kts 67°
2026-05-07 03:15 34.11260 -110.05945 33285 ft 452 kts 67°
2026-05-07 03:15 34.12471 -110.02440 33474 ft 453 kts 67°
2026-05-07 03:15 34.13684 -109.98919 33659 ft 455 kts 67°
2026-05-07 03:16 34.14901 -109.95381 33850 ft 457 kts 66°
2026-05-07 03:16 34.16119 -109.91835 34026 ft 458 kts 67°
2026-05-07 03:16 34.17344 -109.88273 34196 ft 460 kts 66°
2026-05-07 03:16 34.18573 -109.84698 34325 ft 461 kts 67°
2026-05-07 03:17 34.19801 -109.81118 34495 ft 462 kts 67°
2026-05-07 03:17 34.21030 -109.77525 34624 ft 464 kts 67°
2026-05-07 03:17 34.22263 -109.73913 34720 ft 466 kts 67°
2026-05-07 03:18 34.24742 -109.66637 34908 ft 469 kts 67°
2026-05-07 03:18 34.25989 -109.62981 35024 ft 471 kts 67°
2026-05-07 03:18 34.27239 -109.59309 35054 ft 471 kts 67°
2026-05-07 03:19 34.29714 -109.52018 35074 ft 471 kts 67°
2026-05-07 03:19 34.32197 -109.44677 35109 ft 472 kts 67°
2026-05-07 03:20 34.34685 -109.37314 35096 ft 473 kts 67°
2026-05-07 03:20 34.37170 -109.29946 35070 ft 473 kts 67°
2026-05-07 03:21 34.39657 -109.22563 35050 ft 473 kts 68°
2026-05-07 03:21 34.42137 -109.15172 35005 ft 473 kts 68°
2026-05-07 03:22 34.44416 -109.07675 34950 ft 475 kts 71°
2026-05-07 03:22 34.46452 -109.00048 34971 ft 477 kts 72°
2026-05-07 03:23 34.48468 -108.92410 34951 ft 479 kts 72°
2026-05-07 03:23 34.50568 -108.84735 34957 ft 480 kts 71°
2026-05-07 03:24 34.52703 -108.77046 34978 ft 481 kts 71°
2026-05-07 03:24 34.54829 -108.69331 34971 ft 483 kts 71°
2026-05-07 03:25 34.56939 -108.61587 34967 ft 484 kts 71°
2026-05-07 03:25 34.59034 -108.53868 34976 ft 484 kts 71°
2026-05-07 03:26 34.61145 -108.46096 34980 ft 485 kts 71°
2026-05-07 03:26 34.63248 -108.38310 34976 ft 486 kts 71°
2026-05-07 03:27 34.65351 -108.30499 34967 ft 488 kts 71°
2026-05-07 03:27 34.67463 -108.22660 34970 ft 489 kts 71°
2026-05-07 03:28 34.69576 -108.14801 34979 ft 490 kts 71°
2026-05-07 03:28 34.71686 -108.06922 34983 ft 490 kts 72°
2026-05-07 03:29 34.73788 -107.99037 34994 ft 491 kts 72°
2026-05-07 03:29 34.75892 -107.91134 35001 ft 491 kts 72°
2026-05-07 03:30 34.77985 -107.83231 35005 ft 491 kts 72°
2026-05-07 03:30 34.80069 -107.75361 35008 ft 491 kts 72°
2026-05-07 03:31 34.82157 -107.67435 34988 ft 493 kts 72°
2026-05-07 03:31 34.84249 -107.59465 34986 ft 495 kts 72°
2026-05-07 03:32 34.86350 -107.51467 34990 ft 496 kts 72°
2026-05-07 03:32 34.88453 -107.43442 34991 ft 497 kts 72°
2026-05-07 03:33 34.90552 -107.35395 34989 ft 499 kts 72°
2026-05-07 03:33 34.92640 -107.27315 34975 ft 501 kts 72°
2026-05-07 03:34 34.94740 -107.19197 34980 ft 503 kts 72°
2026-05-07 03:34 34.96843 -107.11059 34983 ft 504 kts 72°
2026-05-07 03:35 34.98926 -107.02960 35000 ft 505 kts 72°
2026-05-07 03:35 35.01031 -106.94771 34979 ft 507 kts 72°
2026-05-07 03:36 35.03131 -106.86546 35136 ft 509 kts 72°
2026-05-07 03:36 35.05920 -106.78643 35167 ft 507 kts 56°
2026-05-07 03:37 35.09645 -106.71422 35171 ft 495 kts 56°
2026-05-07 03:37 35.13302 -106.64309 35151 ft 496 kts 55°
2026-05-07 03:38 35.16971 -106.57141 35016 ft 498 kts 55°
2026-05-07 03:38 35.20639 -106.49964 35024 ft 498 kts 55°
2026-05-07 03:39 35.24303 -106.42782 35025 ft 497 kts 55°
2026-05-07 03:39 35.27963 -106.35596 35027 ft 498 kts 56°
2026-05-07 03:40 35.31008 -106.29611 35034 ft 499 kts 55°
2026-05-07 03:40 35.35283 -106.21200 35048 ft 501 kts 55°
2026-05-07 03:41 35.38371 -106.15108 35076 ft 502 kts 55°
2026-05-07 03:41 35.42053 -106.07826 35135 ft 502 kts 56°
2026-05-07 03:42 35.45656 -106.00658 35130 ft 489 kts 56°
2026-05-07 03:42 35.49229 -105.93545 35046 ft 492 kts 55°
2026-05-07 03:43 35.52810 -105.86439 35074 ft 493 kts 55°
2026-05-07 03:43 35.56410 -105.79270 35074 ft 493 kts 56°
2026-05-07 03:44 35.59993 -105.72087 35104 ft 493 kts 56°
2026-05-07 03:44 35.63568 -105.64894 35097 ft 493 kts 56°
2026-05-07 03:45 35.67166 -105.57686 35115 ft 495 kts 55°
2026-05-07 03:45 35.70771 -105.50445 35134 ft 497 kts 56°
2026-05-07 03:46 35.74354 -105.43217 35177 ft 498 kts 56°
2026-05-07 03:46 35.77956 -105.35934 35232 ft 496 kts 56°
2026-05-07 03:47 35.81530 -105.28689 35267 ft 494 kts 56°
2026-05-07 03:47 35.85096 -105.21455 35242 ft 494 kts 56°
2026-05-07 03:48 35.88668 -105.14199 35213 ft 494 kts 56°
2026-05-07 03:48 35.92201 -105.06985 35218 ft 495 kts 56°
2026-05-07 03:49 35.95786 -104.99669 35217 ft 495 kts 56°
2026-05-07 03:49 35.99324 -104.92445 35218 ft 495 kts 56°
2026-05-07 03:50 36.02885 -104.85148 35188 ft 496 kts 56°
2026-05-07 03:50 36.06451 -104.77813 35184 ft 498 kts 56°
2026-05-07 03:51 36.10008 -104.70475 35229 ft 497 kts 56°
2026-05-07 03:51 36.13544 -104.63166 35231 ft 494 kts 56°
2026-05-07 03:52 36.17057 -104.55919 35227 ft 493 kts 56°
2026-05-07 03:52 36.20574 -104.48640 35221 ft 492 kts 56°
2026-05-07 03:53 36.24075 -104.41358 35218 ft 492 kts 56°
2026-05-07 03:53 36.27566 -104.34077 35214 ft 491 kts 56°
2026-05-07 03:54 36.31052 -104.26786 35214 ft 491 kts 56°
2026-05-07 03:54 36.34538 -104.19508 35230 ft 491 kts 56°
2026-05-07 03:55 36.38030 -104.12197 35193 ft 493 kts 56°
2026-05-07 03:55 36.41528 -104.04874 35241 ft 493 kts 56°
2026-05-07 03:56 36.45001 -103.97556 35242 ft 490 kts 57°
2026-05-07 03:56 36.48440 -103.90264 35249 ft 488 kts 57°
2026-05-07 03:57 36.51876 -103.82993 35243 ft 488 kts 57°
2026-05-07 03:57 36.55325 -103.75704 35216 ft 490 kts 57°
2026-05-07 03:58 36.58782 -103.68393 35210 ft 491 kts 57°
2026-05-07 03:58 36.62232 -103.61050 35210 ft 492 kts 57°
2026-05-07 03:59 36.65675 -103.53685 35212 ft 492 kts 57°
2026-05-07 03:59 36.69122 -103.46300 35207 ft 493 kts 57°
2026-05-07 04:00 36.72571 -103.38941 35226 ft 495 kts 57°
2026-05-07 04:00 36.76024 -103.31527 35241 ft 493 kts 57°
2026-05-07 04:01 36.79453 -103.24138 35240 ft 492 kts 57°
2026-05-07 04:01 36.82881 -103.16751 35232 ft 491 kts 57°
2026-05-07 04:02 36.86296 -103.09379 35227 ft 491 kts 57°
2026-05-07 04:02 36.89709 -103.01977 35202 ft 492 kts 57°
2026-05-07 04:03 36.93128 -102.94555 35197 ft 493 kts 57°
2026-05-07 04:03 36.96545 -102.87119 35200 ft 494 kts 57°
2026-05-07 04:04 36.99965 -102.79664 35203 ft 494 kts 57°
2026-05-07 04:04 37.03382 -102.72199 35216 ft 495 kts 57°
2026-05-07 04:05 37.06797 -102.64712 35221 ft 495 kts 57°
2026-05-07 04:05 37.10205 -102.57234 35221 ft 494 kts 57°
2026-05-07 04:06 37.13608 -102.49753 35220 ft 494 kts 57°
2026-05-07 04:06 37.17001 -102.42266 35229 ft 494 kts 57°
2026-05-07 04:07 37.20395 -102.34770 35215 ft 495 kts 57°
2026-05-07 04:07 37.23779 -102.27288 35204 ft 496 kts 57°
2026-05-07 04:08 37.27177 -102.19728 35205 ft 498 kts 57°
2026-05-07 04:08 37.30578 -102.12138 35210 ft 498 kts 57°
2026-05-07 04:09 37.33975 -102.04552 35240 ft 499 kts 57°
2026-05-07 04:09 37.37371 -101.96958 35244 ft 498 kts 57°
2026-05-07 04:10 37.40762 -101.89357 35240 ft 498 kts 57°
2026-05-07 04:10 37.44149 -101.81764 35242 ft 497 kts 58°
2026-05-07 04:11 37.47525 -101.74157 35250 ft 497 kts 58°
2026-05-07 04:11 37.50876 -101.66604 35266 ft 497 kts 58°
2026-05-07 04:12 37.54251 -101.58982 35234 ft 499 kts 58°
2026-05-07 04:12 37.57620 -101.51329 35216 ft 500 kts 58°
2026-05-07 04:13 37.60987 -101.43651 35216 ft 501 kts 58°
2026-05-07 04:13 37.64363 -101.35960 35244 ft 501 kts 58°
2026-05-07 04:14 37.67729 -101.28287 35258 ft 500 kts 58°
2026-05-07 04:14 37.71088 -101.20595 35232 ft 500 kts 58°
2026-05-07 04:15 37.74445 -101.12895 35222 ft 500 kts 58°
2026-05-07 04:15 37.77794 -101.05187 35220 ft 501 kts 58°
2026-05-07 04:16 37.81141 -100.97456 35218 ft 501 kts 58°
2026-05-07 04:16 37.84480 -100.89726 35216 ft 501 kts 58°
2026-05-07 04:17 37.87804 -100.82038 35217 ft 501 kts 58°
2026-05-07 04:17 37.91143 -100.74291 35215 ft 501 kts 58°
2026-05-07 04:18 37.94041 -100.66241 35212 ft 503 kts 64°
2026-05-07 04:18 37.96807 -100.58101 35214 ft 503 kts 64°
2026-05-07 04:19 37.99588 -100.49946 35199 ft 505 kts 64°
2026-05-07 04:19 38.02368 -100.41756 35193 ft 507 kts 64°
2026-05-07 04:20 38.05153 -100.33524 35192 ft 508 kts 64°
2026-05-07 04:20 38.07938 -100.25263 35195 ft 509 kts 64°
2026-05-07 04:21 38.12105 -100.12846 35187 ft 511 kts 64°
2026-05-07 04:21 38.14894 -100.04524 35184 ft 513 kts 64°
2026-05-07 04:22 38.17685 -99.96161 35190 ft 515 kts 65°
2026-05-07 04:22 38.20455 -99.87822 35195 ft 515 kts 65°
2026-05-07 04:23 38.23242 -99.79403 35192 ft 517 kts 65°
2026-05-07 04:23 38.26035 -99.70967 35220 ft 518 kts 65°
2026-05-07 04:24 38.28824 -99.62510 35226 ft 517 kts 65°
2026-05-07 04:24 38.31609 -99.54057 35223 ft 517 kts 65°
2026-05-07 04:25 38.34375 -99.45619 35235 ft 516 kts 65°
2026-05-07 04:25 38.37125 -99.37211 35194 ft 517 kts 65°
2026-05-07 04:26 38.39882 -99.28730 35185 ft 519 kts 65°
2026-05-07 04:26 38.42638 -99.20226 35186 ft 519 kts 65°
2026-05-07 04:27 38.45407 -99.11703 35187 ft 520 kts 65°
2026-05-07 04:27 38.47726 -99.04554 35175 ft 521 kts 65°
2026-05-07 04:28 38.50491 -98.95980 35170 ft 523 kts 65°
2026-05-07 04:28 38.53252 -98.87370 35172 ft 525 kts 66°
2026-05-07 04:29 38.55992 -98.78780 35166 ft 526 kts 66°
2026-05-07 04:29 38.58749 -98.70130 35223 ft 524 kts 66°
2026-05-07 04:30 38.61498 -98.61491 35198 ft 524 kts 66°
2026-05-07 04:30 38.64246 -98.52851 35175 ft 524 kts 66°
2026-05-07 04:31 38.66983 -98.44206 35159 ft 524 kts 66°
2026-05-07 04:31 38.69718 -98.35554 35157 ft 524 kts 66°
2026-05-07 04:32 38.72441 -98.26887 35144 ft 526 kts 66°
2026-05-07 04:32 38.75168 -98.18170 35136 ft 527 kts 66°
2026-05-07 04:33 38.77890 -98.09432 35136 ft 528 kts 66°
2026-05-07 04:33 38.80616 -98.00675 35143 ft 529 kts 66°
2026-05-07 04:34 38.83322 -97.91961 35138 ft 530 kts 67°
2026-05-07 04:34 38.86058 -97.83157 35176 ft 533 kts 67°
2026-05-07 04:35 38.88784 -97.74311 35185 ft 533 kts 67°
2026-05-07 04:35 38.91492 -97.65464 35183 ft 532 kts 67°
2026-05-07 04:36 38.94106 -97.56581 35189 ft 531 kts 69°
2026-05-07 04:36 38.96480 -97.47594 35171 ft 531 kts 70°
2026-05-07 04:37 38.98772 -97.38581 35160 ft 530 kts 70°
2026-05-07 04:37 39.01109 -97.29601 35155 ft 529 kts 70°
2026-05-07 04:38 39.03481 -97.20637 35150 ft 529 kts 70°
2026-05-07 04:38 39.05845 -97.11685 35143 ft 529 kts 70°
2026-05-07 04:39 39.08194 -97.02713 35142 ft 528 kts 70°
2026-05-07 04:39 39.10503 -96.93795 35141 ft 528 kts 70°
2026-05-07 04:40 39.12824 -96.84808 35141 ft 528 kts 70°
2026-05-07 04:40 39.15138 -96.75819 35114 ft 530 kts 71°
2026-05-07 04:41 39.17467 -96.66783 35173 ft 531 kts 70°
2026-05-07 04:41 39.19784 -96.57765 35171 ft 529 kts 70°
2026-05-07 04:42 39.22081 -96.48759 35157 ft 528 kts 70°
2026-05-07 04:42 39.24376 -96.39753 35115 ft 529 kts 71°
2026-05-07 04:43 39.26652 -96.30786 35101 ft 531 kts 71°
2026-05-07 04:43 39.28939 -96.21704 35104 ft 532 kts 71°
2026-05-07 04:44 39.31222 -96.12606 35106 ft 533 kts 71°
2026-05-07 04:44 39.33509 -96.03486 35109 ft 534 kts 71°
2026-05-07 04:45 39.35789 -95.94338 35101 ft 536 kts 71°
2026-05-07 04:45 39.38079 -95.85135 35101 ft 537 kts 71°
2026-05-07 04:46 39.40364 -95.75927 35100 ft 538 kts 71°
2026-05-07 04:46 39.42639 -95.66697 35092 ft 539 kts 72°
2026-05-07 04:47 39.44914 -95.57433 35138 ft 542 kts 71°
2026-05-07 04:47 39.47187 -95.48138 35142 ft 541 kts 71°
2026-05-07 04:48 39.49438 -95.38918 35144 ft 539 kts 71°
2026-05-07 04:48 39.51695 -95.29659 35118 ft 539 kts 72°
2026-05-07 04:49 39.53944 -95.20368 35091 ft 541 kts 72°
2026-05-07 04:49 39.56197 -95.11041 35092 ft 543 kts 72°
2026-05-07 04:50 39.58445 -95.01679 35100 ft 544 kts 72°
2026-05-07 04:50 39.60683 -94.92284 35113 ft 545 kts 72°
2026-05-07 04:51 39.62915 -94.82869 35101 ft 547 kts 72°
2026-05-07 04:51 39.65155 -94.73426 35100 ft 548 kts 72°
2026-05-07 04:52 39.67389 -94.64026 35109 ft 549 kts 72°
2026-05-07 04:52 39.69629 -94.54542 35111 ft 550 kts 73°
2026-05-07 04:53 39.71855 -94.45009 35122 ft 553 kts 73°
2026-05-07 04:53 39.74084 -94.35435 35195 ft 553 kts 72°
2026-05-07 04:54 39.76307 -94.25880 35188 ft 552 kts 72°
2026-05-07 04:54 39.78515 -94.16336 35169 ft 551 kts 73°
2026-05-07 04:55 39.80721 -94.06765 35126 ft 553 kts 73°
2026-05-07 04:55 39.82926 -93.97143 35117 ft 555 kts 73°
2026-05-07 04:56 39.85128 -93.87500 35112 ft 556 kts 73°
2026-05-07 04:56 39.87312 -93.77885 35106 ft 557 kts 73°
2026-05-07 04:57 39.89502 -93.68190 35100 ft 559 kts 73°
2026-05-07 04:57 39.91691 -93.58454 35101 ft 560 kts 73°
2026-05-07 04:58 39.93880 -93.48696 35111 ft 561 kts 73°
2026-05-07 04:58 39.96069 -93.38915 35112 ft 561 kts 73°
2026-05-07 04:59 39.98245 -93.29131 35120 ft 562 kts 73°
2026-05-07 04:59 40.00405 -93.19357 35161 ft 560 kts 73°
2026-05-07 05:00 40.02555 -93.09608 35158 ft 558 kts 73°
2026-05-07 05:00 40.04697 -92.99877 35149 ft 558 kts 73°
2026-05-07 05:01 40.06810 -92.90184 35132 ft 559 kts 74°
2026-05-07 05:01 40.08926 -92.80418 35123 ft 559 kts 74°
2026-05-07 05:02 40.11041 -92.70634 35120 ft 559 kts 74°
2026-05-07 05:02 40.13180 -92.60855 35091 ft 560 kts 70°
2026-05-07 05:03 40.16274 -92.51539 35097 ft 560 kts 62°
2026-05-07 05:03 40.19623 -92.42321 35105 ft 561 kts 62°
2026-05-07 05:04 40.22966 -92.33069 35111 ft 562 kts 62°
2026-05-07 05:04 40.26283 -92.23833 35109 ft 558 kts 62°
2026-05-07 05:05 40.29587 -92.14611 35105 ft 559 kts 62°
2026-05-07 05:05 40.32897 -92.05370 35101 ft 561 kts 63°
2026-05-07 05:06 40.36195 -91.96105 35105 ft 561 kts 63°
2026-05-07 05:06 40.39481 -91.86867 35113 ft 562 kts 63°
2026-05-07 05:07 40.42775 -91.77553 35104 ft 563 kts 63°
2026-05-07 05:07 40.46009 -91.68175 35097 ft 564 kts 64°
2026-05-07 05:08 40.49168 -91.58744 35130 ft 564 kts 64°
2026-05-07 05:08 40.52321 -91.49316 35122 ft 563 kts 64°
2026-05-07 05:09 40.55491 -91.39903 35105 ft 563 kts 64°
2026-05-07 05:09 40.58702 -91.30489 35093 ft 564 kts 63°
2026-05-07 05:10 40.61942 -91.21094 35093 ft 564 kts 63°
2026-05-07 05:10 40.65169 -91.11661 35098 ft 565 kts 63°
2026-05-07 05:11 40.68368 -91.02209 35096 ft 565 kts 64°
2026-05-07 05:11 40.71024 -90.94331 35099 ft 566 kts 64°
2026-05-07 05:12 40.74219 -90.84843 35105 ft 566 kts 64°
2026-05-07 05:12 40.77413 -90.75339 35080 ft 567 kts 64°
2026-05-07 05:13 40.80599 -90.65818 35087 ft 568 kts 64°
2026-05-07 05:13 40.83792 -90.56245 35095 ft 569 kts 64°
2026-05-07 05:14 40.86990 -90.46677 35105 ft 570 kts 64°
2026-05-07 05:14 40.90192 -90.37082 35123 ft 570 kts 64°
2026-05-07 05:15 40.93381 -90.27488 35148 ft 570 kts 64°
2026-05-07 05:15 40.96557 -90.17896 35139 ft 569 kts 64°
2026-05-07 05:16 40.99699 -90.08362 35125 ft 569 kts 64°
2026-05-07 05:16 41.02860 -89.98742 35097 ft 570 kts 64°
2026-05-07 05:17 41.06025 -89.89112 35091 ft 571 kts 64°
2026-05-07 05:17 41.09211 -89.79454 35091 ft 572 kts 64°
2026-05-07 05:18 41.12404 -89.69764 35096 ft 573 kts 64°
2026-05-07 05:18 41.15582 -89.60060 35146 ft 572 kts 64°
2026-05-07 05:19 41.19024 -89.50567 35138 ft 569 kts 58°
2026-05-07 05:19 41.22876 -89.41424 35131 ft 567 kts 56°
2026-05-07 05:20 41.26749 -89.32385 35121 ft 567 kts 57°
2026-05-07 05:20 41.30497 -89.23169 35105 ft 567 kts 59°
2026-05-07 05:21 41.35991 -89.09194 35145 ft 568 kts 59°
2026-05-07 05:22 41.39660 -88.99949 34886 ft 562 kts 58°
2026-05-07 05:22 41.41490 -88.95362 33879 ft 557 kts 58°
2026-05-07 05:22 41.43307 -88.90818 32449 ft 556 kts 58°
2026-05-07 05:22 41.45122 -88.86270 31132 ft 553 kts 59°
2026-05-07 05:23 41.46927 -88.81736 29669 ft 550 kts 59°
2026-05-07 05:23 41.48710 -88.77235 27950 ft 549 kts 59°
2026-05-07 05:23 41.50479 -88.72740 26615 ft 540 kts 59°
2026-05-07 05:23 41.52183 -88.68390 25446 ft 528 kts 59°
2026-05-07 05:24 41.53864 -88.64096 24309 ft 517 kts 58°
2026-05-07 05:24 41.55517 -88.59883 23157 ft 505 kts 58°
2026-05-07 05:24 41.57389 -88.56051 22085 ft 480 kts 45°
2026-05-07 05:24 41.59568 -88.52799 20956 ft 462 kts 42°
2026-05-07 05:25 41.61708 -88.49671 19847 ft 448 kts 42°
2026-05-07 05:25 41.63781 -88.46644 18788 ft 436 kts 42°
2026-05-07 05:25 41.65806 -88.43696 17629 ft 424 kts 42°
2026-05-07 05:25 41.67776 -88.40825 16429 ft 413 kts 42°
2026-05-07 05:26 41.69695 -88.38025 15307 ft 404 kts 43°
2026-05-07 05:26 41.71607 -88.35323 14205 ft 392 kts 37°
2026-05-07 05:26 41.73585 -88.32953 13057 ft 382 kts 37°
2026-05-07 05:26 41.75544 -88.30611 11934 ft 373 kts 37°
2026-05-07 05:27 41.77459 -88.28320 10903 ft 365 kts 37°
2026-05-07 05:27 41.79348 -88.26059 10544 ft 364 kts 37°
2026-05-07 05:27 41.81236 -88.23799 10291 ft 363 kts 37°
2026-05-07 05:27 41.83114 -88.21549 10048 ft 356 kts 37°
2026-05-07 05:28 41.84862 -88.19418 9863 ft 324 kts 40°
2026-05-07 05:28 41.86270 -88.17200 9722 ft 304 kts 50°
2026-05-07 05:28 41.87338 -88.14773 9582 ft 303 kts 60°
2026-05-07 05:28 41.88081 -88.12124 9448 ft 305 kts 71°
2026-05-07 05:29 41.88469 -88.09335 9325 ft 309 kts 82°
2026-05-07 05:29 41.88513 -88.06449 9197 ft 308 kts 88°
2026-05-07 05:29 41.88489 -88.03574 9062 ft 308 kts 88°
2026-05-07 05:29 41.88467 -88.00707 8933 ft 306 kts 88°
2026-05-07 05:30 41.88446 -87.97849 9007 ft 307 kts 88°
2026-05-07 05:30 41.88437 -87.94977 9010 ft 307 kts 87°
2026-05-07 05:30 41.88438 -87.92118 9010 ft 307 kts 87°
2026-05-07 05:30 41.88440 -87.89251 9010 ft 307 kts 87°
2026-05-07 05:31 41.88442 -87.86378 9011 ft 307 kts 87°
2026-05-07 05:31 41.88444 -87.83513 9010 ft 307 kts 87°
2026-05-07 05:31 41.88443 -87.80657 9019 ft 307 kts 88°
2026-05-07 05:31 41.88442 -87.77794 9019 ft 307 kts 87°
2026-05-07 05:32 41.88438 -87.74963 9020 ft 307 kts 88°
2026-05-07 05:32 41.88434 -87.72107 9019 ft 307 kts 88°
2026-05-07 05:32 41.88429 -87.69205 9019 ft 306 kts 88°
2026-05-07 05:32 41.88421 -87.66347 9019 ft 306 kts 88°
2026-05-07 05:33 41.88415 -87.63516 9021 ft 306 kts 88°
2026-05-07 05:33 41.88409 -87.60663 9019 ft 306 kts 88°
2026-05-07 05:33 41.88403 -87.57803 9019 ft 306 kts 88°
2026-05-07 05:33 41.88393 -87.54950 9017 ft 306 kts 88°
2026-05-07 05:34 41.88382 -87.52110 9015 ft 306 kts 88°
2026-05-07 05:34 41.88374 -87.49278 9016 ft 306 kts 86°
2026-05-07 05:34 41.88546 -87.46449 9013 ft 301 kts 80°
2026-05-07 05:34 41.88815 -87.43748 9010 ft 283 kts 78°
2026-05-07 05:35 41.89104 -87.41197 9011 ft 272 kts 77°
2026-05-07 05:35 41.89400 -87.38700 9012 ft 270 kts 77°
2026-05-07 05:35 41.89803 -87.36252 8859 ft 265 kts 62°
2026-05-07 05:35 41.90760 -87.34262 8687 ft 253 kts 38°
2026-05-07 05:36 41.92164 -87.32964 8513 ft 241 kts 15°
2026-05-07 05:36 41.93762 -87.32498 8363 ft 232 kts 354°
2026-05-07 05:36 41.95323 -87.32834 8213 ft 224 kts 335°
2026-05-07 05:36 41.96656 -87.33843 8068 ft 218 kts 316°
2026-05-07 05:37 41.97637 -87.35375 7931 ft 216 kts 299°
2026-05-07 05:37 41.98179 -87.37251 7788 ft 216 kts 282°
2026-05-07 05:37 41.98197 -87.39271 7641 ft 221 kts 257°
2026-05-07 05:37 41.97491 -87.41130 7497 ft 226 kts 244°
2026-05-07 05:38 41.96799 -87.43001 7345 ft 221 kts 258°
2026-05-07 05:38 41.96564 -87.45030 7171 ft 219 kts 270°
2026-05-07 05:38 41.96539 -87.47066 6853 ft 217 kts 273°
2026-05-07 05:38 41.96547 -87.49088 6555 ft 216 kts 274°
2026-05-07 05:39 41.96554 -87.51072 6252 ft 215 kts 273°
2026-05-07 05:39 41.96559 -87.53072 5985 ft 213 kts 273°
2026-05-07 05:39 41.96563 -87.55078 5777 ft 215 kts 272°
2026-05-07 05:39 41.96566 -87.57084 5501 ft 215 kts 273°
2026-05-07 05:40 41.96569 -87.59097 5209 ft 215 kts 272°
2026-05-07 05:40 41.96572 -87.61102 4918 ft 215 kts 272°
2026-05-07 05:40 41.96575 -87.63110 4614 ft 214 kts 272°
2026-05-07 05:40 41.96577 -87.65113 4307 ft 215 kts 272°
2026-05-07 05:41 41.96579 -87.67123 4006 ft 214 kts 272°
2026-05-07 05:41 41.96580 -87.69116 3711 ft 213 kts 272°
2026-05-07 05:41 41.96581 -87.71110 3418 ft 213 kts 272°
2026-05-07 05:41 41.96582 -87.73096 3122 ft 213 kts 272°
2026-05-07 05:42 41.96582 -87.75065 2843 ft 205 kts 272°
2026-05-07 05:42 41.96581 -87.76894 2572 ft 186 kts 273°
2026-05-07 05:42 41.96580 -87.78534 2302 ft 170 kts 273°
2026-05-07 05:42 41.96579 -87.80033 2096 ft 149 kts 274°
2026-05-07 05:43 41.96579 -87.81377 1885 ft 140 kts 274°
2026-05-07 05:43 41.96579 -87.82666 1689 ft 136 kts 274°
2026-05-07 05:43 41.96579 -87.83935 1484 ft 136 kts 272°
2026-05-07 05:43 41.96579 -87.85220 1285 ft 138 kts 271°
2026-05-07 05:44 41.96578 -87.86516 1096 ft 139 kts 271°
2026-05-07 05:44 41.96577 -87.87799 911 ft 139 kts 270°
2026-05-07 05:44 41.96575 -87.89094 742 ft 138 kts 270°
2026-05-07 05:44 41.96578 -87.90368 680 ft 135 kts 269°
2026-05-07 05:45 41.96594 -87.91505 670 ft 101 kts 264°
2026-05-07 05:45 41.96585 -87.92025 672 ft 17 kts 294°
2026-05-07 05:45 41.96694 -87.92080 671 ft 21 kts
2026-05-07 05:45 41.96854 -87.92082 672 ft 26 kts
2026-05-07 05:46 41.97009 -87.92083 672 ft 17 kts
2026-05-07 05:46 41.97043 -87.91991 671 ft 15 kts 95°
2026-05-07 05:46 41.97040 -87.91808 672 ft 24 kts 91°
2026-05-07 05:46 41.97037 -87.91546 672 ft 31 kts 90°
2026-05-07 05:47 41.97040 -87.91295 671 ft 26 kts 89°
2026-05-07 05:47 41.97042 -87.91045 671 ft 18 kts 89°
2026-05-07 05:47 41.97043 -87.90875 670 ft 20 kts 91°
2026-05-07 05:47 41.97041 -87.90669 670 ft 18 kts 86°
2026-05-07 05:48 41.97056 -87.90512 670 ft 15 kts 56°
2026-05-07 05:48 41.97137 -87.90502 670 ft 12 kts 329°
2026-05-07 05:48 41.97220 -87.90484 670 ft 15 kts 23°
2026-05-07 05:48 41.97312 -87.90481 671 ft 8 kts 342°
2026-05-07 05:49 41.97323 -87.90496 671 ft 1 kts 298°
2026-05-07 05:49 41.97324 -87.90523 671 ft 4 kts 271°
2026-05-07 05:49 41.97325 -87.90551 671 ft 0 kts 270°
2026-05-07 05:52 41.97324 -87.90626 669 ft 16 kts 266°
2026-05-07 05:52 41.97298 -87.90765 671 ft 15 kts 234°
2026-05-07 05:52 41.97242 -87.90737 670 ft 12 kts 118°
2026-05-07 05:53 41.97220 -87.90641 670 ft 14 kts 95°
2026-05-07 05:53 41.97213 -87.90530 670 ft 14 kts 86°
2026-05-07 05:53 41.97249 -87.90493 670 ft 10 kts
2026-05-07 05:53 41.97312 -87.90492 668 ft 11 kts
2026-05-07 05:54 41.97352 -87.90502 671 ft 4 kts 299°
2026-05-07 05:54 41.97355 -87.90531 671 ft 7 kts 272°
2026-05-07 05:54 41.97356 -87.90549 671 ft 1 kts 270°